Burlington, VT

4:03 PM EDT on June 27, 2017 (GMT -0400)
Burlington International

Weather History for KBTV - July, 2013

Change the Weather History Date:

Wednesday, July 3, 2013

  Actual Average Record
Temperature  
Mean Temperature 76 °F 70 °F  
Max Temperature 82 °F 80 °F 100 °F (1911)
Min Temperature 69 °F 60 °F 40 °F (1978)
Degree Days  
Heating Degree Days 0 1  
Month to date heating degree days 0 3  
Since 1 June heating degree days 65 76  
Since 1 July heating degree days 0 3  
Cooling Degree Days 11 6  
Month to date cooling degree days 19 18  
Year to date cooling degree days 181 134  
Since 1 June cooling degree days 134 115  
Growing Degree Days 25 (Base 50)    
Moisture  
Dew Point 71 °F    
Average Humidity 83    
Maximum Humidity 97    
Minimum Humidity 69    
Precipitation  
Precipitation 0.12 in 0.13 in 1.86 in (1892)
Month to date precipitation 0.60 0.39  
Year to date precipitation 25.73 16.39  
Snow  
Snow 0.00 in 0.00 in 0.00 in (2002)
Month to date snowfall 0.0 0.0  
Since 1 June snowfall 0.0 0.0  
Since 1 July snowfall 0.0 0.0  
Snow Depth 0.00 in    
Sea Level Pressure  
Sea Level Pressure 30.12 in    
Wind  
Wind Speed 2 mph (South)    
Max Wind Speed 14 mph    
Max Gust Speed 16 mph    
Visibility 8 miles    
Events Rain , Thunderstorm    
T = Trace of Precipitation, MM = Missing Value Source: NWS Daily Summary

Daily Weather History Graph

Daily Weather History Graph

Search for Another Location

Airport or City:

Trip Planner

Search our weather history database for the weather conditions in past years. The results will help you decide how hot, cold, wet, or windy it might be!

Date:

Astronomy

Jul. 03, 2013 Rise Set
Actual Time 5:13 AM EDT 8:40 PM EDT
Civil Twilight 4:36 AM EDT 9:16 PM EDT
Nautical Twilight 3:48 AM EDT 10:04 PM EDT
Astronomical Twilight 2:47 AM EDT 11:05 PM EDT
Moon 1:54 AM EDT (7/3) 4:44 PM EDT (7/3)
Length of Visible Light 16h 40m
Length of Day
15h 27m
Waning Crescent, 18% of the Moon is Illuminated
Jul 3
Waning Crescent
Jul 8
New
Jul 15
First Quarter
Jul 22
Full
Jul 29
Last Quarter

Hourly Weather History & Observations

Time (EDT) Temp. Heat Index Dew Point Humidity Pressure Visibility Wind Dir Wind Speed Gust Speed Precip Events Conditions
12:40 AM 69.8 °F - 66.2 °F 88% 30.11 in 5.0 mi SSW 3.5 mph - N/A   Overcast
12:54 AM 69.1 °F - 66.9 °F 93% 30.11 in 5.0 mi South 3.5 mph - N/A   Overcast
1:54 AM 70.0 °F - 68.0 °F 93% 30.10 in 7.0 mi South 3.5 mph - N/A   Mostly Cloudy
2:01 AM 69.8 °F - 66.2 °F 88% 30.10 in 7.0 mi ESE 3.5 mph - N/A   Partly Cloudy
2:40 AM 69.8 °F - 68.0 °F 94% 30.09 in 7.0 mi Calm Calm - N/A   Mostly Cloudy
2:54 AM 69.1 °F - 66.9 °F 93% 30.09 in 5.0 mi Calm Calm - N/A   Mostly Cloudy
3:07 AM 69.8 °F - 68.0 °F 94% 30.10 in 6.0 mi Calm Calm - N/A   Scattered Clouds
3:24 AM 69.8 °F - 66.2 °F 88% 30.10 in 4.0 mi Calm Calm - N/A   Mostly Cloudy
3:52 AM 69.8 °F - 68.0 °F 94% 30.09 in 6.0 mi SE 3.5 mph - N/A   Scattered Clouds
3:54 AM 69.1 °F - 66.9 °F 93% 30.09 in 6.0 mi Calm Calm - N/A   Scattered Clouds
4:13 AM 69.8 °F - 66.2 °F 88% 30.09 in 5.0 mi Calm Calm - N/A   Mostly Cloudy
4:22 AM 69.8 °F - 66.2 °F 88% 30.09 in 4.0 mi Calm Calm - N/A   Overcast
4:47 AM 69.8 °F - 66.2 °F 88% 30.10 in 6.0 mi Calm Calm - N/A   Mostly Cloudy
4:54 AM 69.1 °F - 66.9 °F 93% 30.10 in 6.0 mi NNW 3.5 mph - N/A   Mostly Cloudy
5:23 AM 69.8 °F - 68.0 °F 94% 30.10 in 2.0 mi ESE 3.5 mph - N/A   Overcast
5:34 AM 69.8 °F - 66.2 °F 88% 30.11 in 2.0 mi Calm Calm - N/A   Overcast
5:47 AM 69.8 °F - 68.0 °F 94% 30.11 in 2.0 mi Calm Calm - N/A   Overcast
5:51 AM 69.8 °F - 68.0 °F 94% 30.11 in 4.0 mi Calm Calm - N/A   Mostly Cloudy
5:54 AM 69.1 °F - 66.9 °F 93% 30.11 in 4.0 mi Calm Calm - N/A   Mostly Cloudy
6:35 AM 69.8 °F - 68.0 °F 94% 30.13 in 10.0 mi Calm Calm - N/A   Mostly Cloudy
6:54 AM 71.1 °F - 68.0 °F 90% 30.13 in 4.0 mi Calm Calm - N/A   Mostly Cloudy
7:54 AM 73.9 °F - 71.1 °F 91% 30.14 in 10.0 mi SW 4.6 mph - N/A   Mostly Cloudy
8:54 AM 75.9 °F - 72.0 °F 87% 30.14 in 10.0 mi SSW 6.9 mph - N/A   Overcast
9:08 AM 75.2 °F - 71.6 °F 89% 30.15 in 10.0 mi SW 5.8 mph - N/A   Overcast
9:17 AM 75.2 °F - 71.6 °F 89% 30.15 in 10.0 mi SW 5.8 mph - N/A   Overcast
9:54 AM 78.1 °F - 73.0 °F 84% 30.14 in 10.0 mi Calm Calm - N/A   Mostly Cloudy
10:01 AM 77.0 °F - 71.6 °F 83% 30.15 in 10.0 mi WSW 5.8 mph - N/A   Mostly Cloudy
10:10 AM 78.8 °F - 71.6 °F 78% 30.15 in 10.0 mi WSW 5.8 mph - N/A   Mostly Cloudy
10:25 AM 78.8 °F - 71.6 °F 78% 30.15 in 10.0 mi SW 4.6 mph - N/A   Mostly Cloudy
10:50 AM 80.6 °F 85.4 °F 73.4 °F 79% 30.14 in 10.0 mi Variable 5.8 mph - N/A   Mostly Cloudy
10:54 AM 79.0 °F - 72.0 °F 79% 30.14 in 10.0 mi SW 5.8 mph - N/A   Mostly Cloudy
11:03 AM 80.6 °F 85.4 °F 73.4 °F 79% 30.14 in 10.0 mi SSW 5.8 mph - N/A   Overcast
11:16 AM 80.6 °F 85.4 °F 73.4 °F 79% 30.14 in 10.0 mi Variable 3.5 mph - N/A   Mostly Cloudy
11:28 AM 80.6 °F 85.4 °F 73.4 °F 79% 30.14 in 10.0 mi West 4.6 mph - N/A   Mostly Cloudy
11:54 AM 82.0 °F 87.4 °F 73.0 °F 74% 30.14 in 10.0 mi Calm Calm - N/A   Mostly Cloudy
12:17 PM 78.8 °F - 71.6 °F 78% 30.15 in 2.0 mi WNW 8.1 mph - 0.00 in Rain Rain
12:40 PM 75.2 °F - 73.4 °F 94% 30.14 in 5.0 mi Variable 3.5 mph - 0.06 in Rain Light Rain
12:54 PM 78.1 °F - 73.9 °F 87% 30.13 in 10.0 mi SSW 3.5 mph - 0.07 in   Mostly Cloudy
1:18 PM 80.6 °F 86.2 °F 75.2 °F 84% 30.13 in 10.0 mi ESE 4.6 mph - N/A Thunderstorm Mostly Cloudy
1:44 PM 78.8 °F - 73.4 °F 83% 30.14 in 10.0 mi East 6.9 mph - N/A   Mostly Cloudy
1:52 PM 80.6 °F 85.4 °F 73.4 °F 79% 30.14 in 10.0 mi ESE 6.9 mph - N/A Thunderstorm Mostly Cloudy
1:54 PM 80.1 °F 84.5 °F 73.9 °F 81% 30.14 in 10.0 mi ESE 5.8 mph - N/A Thunderstorm Mostly Cloudy
2:11 PM 78.8 °F - 73.4 °F 83% 30.13 in 10.0 mi SE 4.6 mph - N/A   Mostly Cloudy
2:34 PM 78.8 °F - 73.4 °F 83% 30.13 in 10.0 mi Calm Calm - N/A Thunderstorm Mostly Cloudy
2:54 PM 78.1 °F - 73.9 °F 87% 30.14 in 9.0 mi Variable 3.5 mph - 0.00 in Rain , Thunderstorm Light Thunderstorms and Rain
3:01 PM 77.0 °F - 73.4 °F 89% 30.14 in 3.0 mi NW 11.5 mph 16.1 mph 0.00 in Rain Light Rain
3:06 PM 75.2 °F - 73.4 °F 94% 30.14 in 3.0 mi NW 9.2 mph - 0.02 in Rain Rain
3:15 PM 75.2 °F - 73.4 °F 94% 30.14 in 5.0 mi North 3.5 mph - 0.04 in Rain , Thunderstorm Light Thunderstorms and Rain
3:31 PM 78.8 °F - 73.4 °F 83% 30.14 in 10.0 mi ENE 4.6 mph - 0.05 in Rain Light Rain
3:54 PM 80.1 °F 84.2 °F 73.0 °F 79% 30.13 in 10.0 mi ENE 3.5 mph - 0.05 in   Scattered Clouds
4:54 PM 81.0 °F 85.8 °F 73.0 °F 77% 30.11 in 10.0 mi East 3.5 mph - N/A   Scattered Clouds
5:09 PM 80.6 °F 84.6 °F 71.6 °F 74% 30.12 in 10.0 mi Calm Calm - N/A Thunderstorm Scattered Clouds
5:24 PM 80.6 °F 85.4 °F 73.4 °F 79% 30.11 in 10.0 mi Calm Calm - N/A   Scattered Clouds
5:54 PM 81.0 °F 85.2 °F 72.0 °F 74% 30.10 in 10.0 mi Calm Calm - N/A   Partly Cloudy
6:54 PM 82.0 °F 86.3 °F 71.1 °F 69% 30.11 in 10.0 mi Calm Calm - N/A   Partly Cloudy
7:54 PM 79.0 °F - 72.0 °F 79% 30.12 in 10.0 mi NW 6.9 mph - N/A   Mostly Cloudy
8:54 PM 77.0 °F - 71.1 °F 82% 30.12 in 10.0 mi NNW 3.5 mph - 0.00 in   Mostly Cloudy
9:54 PM 75.0 °F - 72.0 °F 90% 30.15 in 10.0 mi SE 3.5 mph - N/A   Partly Cloudy
10:54 PM 73.9 °F - 71.1 °F 91% 30.14 in 10.0 mi Calm Calm - N/A   Clear
11:52 PM 73.4 °F - 71.6 °F 94% 30.15 in 10.0 mi Calm Calm - N/A   Partly Cloudy
11:54 PM 73.0 °F - 71.1 °F 93% 30.15 in 10.0 mi Calm Calm - N/A   Partly Cloudy